Content
SEND FEEDBACK

Daily
Averages
Monthly
Summary
United States of America

CHESTERFIELD, MISSOURI


Home > North America > United States > Missouri
Elevation: 559 feet     Latitude: 38 41N     Longitude: 090 31W

WEATHER
 
SELECT A DAY
Number of Records: 203,416;   Date Range: 1/1/95 - 7/26/14
 
SHARE

PRINT THIS DATA

[ ← Previous Day ]
WEATHER ALMANAC - APRIL 21, 2013
[ Next Day → ]
[ °C ]   °F
Weather ElementAverageHighLow
Temperature53.2 °F63 °F (3:51 pm)43 °F (3:51 am)
Dewpoint34.7 °F39 °F (4:51 pm)30 °F (7:51 am)
Humidity50.3 %65 % (3:51 am)38 % (3:51 pm)
Barometer30.35 in30.43 in (7:51 am)30.26 in (6:51 pm)
Wind Speed12.6 mph17.3 mph (7:51 am)
Wind Gust20.7 mph (1:51 pm)
Weather ElementAverage
Visibility10 mi
Wind DirectionESE (122.6 °)

Weather ElementTotal
Precipitation---
Heating Degree Days12 (Base 65)
Growing Degree Days3 (Base 50)
Averaged from 23 records on April 21, 2013
WEATHER CONDITIONS BREAKOUT
WIND DIRECTION BREAKOUT
WEATHER BY HOUR - APRIL 21, 2013
[ °C ]   °F
Local TimeTemperatureDewpointHumidityBarometerVisibilityWind DirectionWind SpeedGust SpeedPrecipitationEventsConditions
1:51 AM45.0 °F32.0 °F60 %30.35 in10.0 miESE (110°)9.2 mphMostly Cloudy
2:51 AM45.0 °F32.0 °F60 %30.36 in10.0 miESE (120°)11.5 mphMostly Cloudy
3:51 AM43.0 °F32.0 °F65 %30.37 in10.0 miESE (120°)9.2 mphMostly Cloudy
4:51 AM44.1 °F32.0 °F63 %30.38 in10.0 miESE (110°)10.4 mphMostly Cloudy
5:51 AM43.0 °F32.0 °F65 %30.39 in10.0 miESE (110°)12.7 mphMostly Cloudy
6:51 AM43.0 °F30.9 °F62 %30.42 in10.0 miESE (120°)12.7 mphMostly Cloudy
7:51 AM44.1 °F30.0 °F58 %30.43 in10.0 miESE (120°)17.3 mphMostly Cloudy
8:51 AM46.9 °F30.9 °F54 %30.43 in10.0 miSE (130°)13.8 mphMostly Cloudy
9:51 AM50.0 °F32.0 °F50 %30.43 in10.0 miSE (130°)15.0 mphMostly Cloudy
10:51 AM52.0 °F33.1 °F49 %30.42 in10.0 miSSE (150°)11.5 mphMostly Cloudy
11:51 AM55.0 °F35.1 °F47 %30.40 in10.0 miSE (130°)12.7 mphMostly Cloudy
12:51 PM57.9 °F36.0 °F44 %30.38 in10.0 miSE (140°)15.0 mph19.6 mphMostly Cloudy
1:51 PM62.1 °F37.0 °F39 %30.34 in10.0 miSE (130°)15.0 mph20.7 mphMostly Cloudy
2:51 PM62.1 °F37.0 °F39 %30.32 in10.0 miESE (120°)10.4 mphMostly Cloudy
3:51 PM63.0 °F37.0 °F38 %30.28 in10.0 miSE (140°)12.7 mphMostly Cloudy
4:51 PM62.1 °F39.0 °F43 %30.27 in10.0 miESE (110°)15.0 mphMostly Cloudy
5:51 PM62.1 °F39.0 °F43 %30.27 in10.0 miESE (110°)13.8 mphMostly Cloudy
6:51 PM60.1 °F37.9 °F44 %30.26 in10.0 miEast (100°)15.0 mphMostly Cloudy
7:51 PM59.0 °F39.0 °F48 %30.27 in10.0 miESE (120°)12.7 mphMostly Cloudy
8:51 PM57.9 °F37.9 °F47 %30.29 in10.0 miESE (120°)10.4 mphMostly Cloudy
9:51 PM57.0 °F36.0 °F45 %30.30 in10.0 miESE (120°)13.8 mphScattered Clouds
10:51 PM57.0 °F35.1 °F44 %30.29 in10.0 miSE (130°)12.7 mphMostly Cloudy
11:51 PM53.1 °F35.1 °F50 %30.29 in10.0 miSE (130°)8.1 mphScattered Clouds
Hourly data recorded from KSTL, located miles away from Chesterfield, Missouri







STORIES FROM OUR PARTNERS